Hourly Data Report for November 17, 2020

VANCOUVER INTL A
BRITISH COLUMBIA
Current Station Operator: NAVCAN

49°11'41.000" N
123°11'02.000" W
4.30 m
1108395
71892
YVR

Download Data

Hourly Data (November 2020)
Hourly Data Report for November 17, 2020
TIME
LST
Temp Definition
°C
Dew Point Definition
°C
Rel Hum Definition
%
Precip. Amount Definition
mm

Wind Dir Definition
10's deg

Wind Spd Definition
km/h
Visibility Definition
km
Stn Press Definition
kPa
Hmdx Definition


Wind Chill Definition


Weather Definition


00:00 5.8 5.3 96   11 11 20.9 99.98     LegendNANA
01:00 6.2 5.7 97   10 11 24.1 99.88     Mainly Clear
02:00 6.2 5.7 96   34 4 24.1 99.68     LegendNANA
03:00 5.6 5.1 97   32 8 24.1 99.58     LegendNANA
04:00 5.4 5.0 97   36 4 24.1 99.40     Mostly Cloudy
05:00 5.5 5.2 98   25 6 16.1 99.32     LegendNANA
06:00 5.7 5.4 98   7 11 12.9 99.10     LegendNANA
07:00 7.3 6.9 98   11 18 32.2 98.79     Cloudy
08:00 8.0 6.5 90   18 21 32.2 98.92     LegendNANA
09:00 8.4 6.5 88   8 17 32.2 98.96     Rain
10:00 14.5 8.6 67   14 45 32.2 98.89     Rain
11:00 12.7 9.4 80   14 41 32.2 98.86     Rain
12:00 12.6 9.2 79   17 35 32.2 98.92     Rain
13:00 11.0 10.2 95   17 24 11.3 99.11     Rain
14:00 11.9 9.4 85   14 18 32.2 99.18     LegendNANA
15:00 11.6 8.9 83   13 18 32.2 99.30     LegendNANA
16:00 11.5 8.1 79   15 18 32.2 99.36     Mostly Cloudy
17:00 10.8 7.2 78   15 16 32.2 99.45     LegendNANA
18:00 10.6 7.0 78   15 13 32.2 99.51     LegendNANA
19:00 10.1 6.9 80   17 15 24.1 99.56     Rain
20:00 9.4 6.8 84   14 19 24.1 99.66     LegendNANA
21:00 9.4 5.8 78   19 23 19.3 99.84     Rain
22:00 8.4 6.0 85   20 16 24.1 99.93     Rain
23:00 8.8 5.5 80   15 13 24.1 100.11     LegendNANA

Notes on Data Quality.

Legend

  • E = Estimated
  • M = Missing
  • NA = Not Available*
  • [empty] = Indicates an unobserved value
Date modified: